| time (UTC) | temp F | wind direction | speed MPH | gust MPH | rain 1hr in | rain 24hr in | rain mn in | humidity % | barometer mb |
| 20260509094518 | 58 | 210 | 1.0 | 3.0 | 0.00 | 0.00 | 0.00 | 83 | 1013.7 |
| 20260509093518 | 58 | 182 | 1.0 | 3.0 | 0.00 | 0.00 | 0.00 | 83 | 1013.7 |
| 20260509092518 | 58 | 198 | 1.0 | 2.0 | 0.00 | 0.00 | 0.00 | 82 | 1013.6 |
| 20260509091518 | 58 | 209 | 1.0 | 3.0 | 0.00 | 0.00 | 0.00 | 82 | 1013.6 |
| 20260509090518 | 58 | 211 | 1.0 | 2.0 | 0.00 | 0.00 | 0.00 | 82 | 1013.8 |
| 20260509085519 | 58 | 198 | 1.0 | 2.0 | 0.00 | 0.00 | 0.00 | 82 | 1013.8 |
| 20260509084516 | 58 | 199 | 1.0 | 3.0 | 0.00 | 0.00 | 0.00 | 82 | 1013.8 |
| 20260509083516 | 58 | 189 | 1.0 | 3.0 | 0.00 | 0.00 | 0.00 | 82 | 1013.7 |
| 20260509082516 | 58 | 182 | 1.0 | 2.0 | 0.00 | 0.00 | 0.00 | 82 | 1013.8 |
| 20260509081516 | 58 | 210 | 1.0 | 3.0 | 0.00 | 0.00 | 0.00 | 82 | 1013.8 |
| 20260509080517 | 57 | 189 | 1.0 | 3.0 | 0.00 | 0.00 | 0.00 | 81 | 1013.9 |
| 20260509075517 | 57 | 204 | 1.0 | 2.0 | 0.00 | 0.00 | 0.00 | 82 | 1014.0 |
| 20260509074517 | 58 | 199 | 1.0 | 2.0 | 0.00 | 0.00 | 0.00 | 81 | 1014.0 |
| 20260509073537 | 58 | 197 | 1.0 | 2.0 | 0.00 | 0.00 | 0.00 | 81 | 1014.1 |
| 20260509072537 | 58 | 203 | 1.0 | 2.0 | 0.00 | 0.00 | 0.00 | 80 | 1014.0 |
| 20260509071517 | 58 | 196 | 1.0 | 2.0 | 0.00 | 0.00 | 0.00 | 80 | 1014.0 |
| 20260509070518 | 57 | 221 | 1.0 | 3.0 | 0.00 | 0.00 | 0.00 | 79 | 1013.9 |
| 20260509065537 | 57 | 199 | 1.0 | 2.0 | 0.00 | 0.00 | 0.00 | 79 | 1013.9 |
| 20260509064518 | 57 | 218 | 1.0 | 2.0 | 0.00 | 0.00 | 0.00 | 80 | 1014.0 |
| 20260509063518 | 57 | 218 | 1.0 | 2.0 | 0.00 | 0.00 | 0.00 | 79 | 1014.1 |
| 20260509062518 | 57 | 230 | 1.0 | 2.0 | 0.00 | 0.00 | 0.00 | 78 | 1014.1 |
| 20260509061516 | 57 | 217 | 1.0 | 2.0 | 0.00 | 0.00 | 0.00 | 77 | 1014.1 |
| 20260509060516 | 57 | 217 | 1.0 | 3.0 | 0.00 | 0.00 | 0.00 | 77 | 1014.1 |
| 20260509055516 | 57 | 205 | 1.0 | 3.0 | 0.00 | 0.00 | 0.00 | 77 | 1014.2 |
| 20260509054516 | 57 | 205 | 1.0 | 3.0 | 0.00 | 0.00 | 0.00 | 76 | 1014.3 |
| 20260509053516 | 58 | 212 | 1.0 | 2.0 | 0.00 | 0.00 | 0.00 | 76 | 1014.2 |
| 20260509052516 | 58 | 212 | 1.0 | 2.0 | 0.00 | 0.00 | 0.00 | 75 | 1014.2 |
| 20260509051516 | 57 | 182 | 1.0 | 3.0 | 0.00 | 0.00 | 0.00 | 74 | 1014.3 |
| 20260509050516 | 57 | 217 | 1.0 | 3.0 | 0.00 | 0.00 | 0.00 | 75 | 1014.4 |
| 20260509045537 | 57 | 209 | 1.0 | 2.0 | 0.00 | 0.00 | 0.00 | 76 | 1014.5 |
| 20260509044517 | 57 | 221 | 1.0 | 3.0 | 0.00 | 0.00 | 0.00 | 76 | 1014.5 |
| 20260509043517 | 58 | 199 | 1.0 | 3.0 | 0.00 | 0.00 | 0.00 | 74 | 1014.5 |
| 20260509042517 | 58 | 200 | 1.0 | 3.0 | 0.00 | 0.00 | 0.00 | 73 | 1014.6 |
| 20260509041517 | 58 | 198 | 1.0 | 3.0 | 0.00 | 0.00 | 0.00 | 71 | 1014.6 |
| 20260509040518 | 58 | 189 | 1.0 | 3.0 | 0.00 | 0.00 | 0.00 | 70 | 1014.5 |
| 20260509035517 | 58 | 187 | 1.0 | 3.0 | 0.00 | 0.00 | 0.00 | 71 | 1014.6 |
| 20260509034538 | 58 | 189 | 1.0 | 3.0 | 0.00 | 0.00 | 0.00 | 74 | 1014.8 |
| 20260509033518 | 58 | 236 | 1.0 | 3.0 | 0.00 | 0.00 | 0.00 | 73 | 1014.7 |
| 20260509032518 | 58 | 208 | 1.0 | 2.0 | 0.00 | 0.00 | 0.00 | 73 | 1014.6 |
| 20260509031518 | 58 | 177 | 1.0 | 3.0 | 0.00 | 0.00 | 0.00 | 73 | 1014.6 |
| 20260509030519 | 58 | 175 | 1.0 | 3.0 | 0.00 | 0.00 | 0.00 | 73 | 1014.5 |
| 20260509025519 | 58 | 261 | 1.0 | 3.0 | 0.00 | 0.00 | 0.00 | 74 | 1014.4 |
| 20260509024516 | 58 | 195 | 1.0 | 3.0 | 0.00 | 0.00 | 0.00 | 75 | 1014.4 |
| 20260509023516 | 58 | 47 | 1.0 | 2.0 | 0.00 | 0.00 | 0.00 | 76 | 1014.4 |
| 20260509022516 | 58 | 231 | 1.0 | 3.0 | 0.00 | 0.00 | 0.00 | 76 | 1014.5 |
| 20260509021516 | 58 | 179 | 1.0 | 3.0 | 0.00 | 0.00 | 0.00 | 75 | 1014.4 |
| 20260509020516 | 58 | 175 | 1.0 | 3.0 | 0.00 | 0.00 | 0.00 | 75 | 1014.4 |
| 20260509015517 | 58 | 234 | 1.0 | 4.0 | 0.00 | 0.00 | 0.00 | 76 | 1014.4 |
| 20260509014537 | 58 | 203 | 1.0 | 3.0 | 0.00 | 0.00 | 0.00 | 77 | 1014.4 |
| 20260509013516 | 58 | 323 | 1.0 | 3.0 | 0.00 | 0.00 | 0.00 | 77 | 1014.4 |
| 20260509012517 | 59 | 239 | 1.0 | 3.0 | 0.00 | 0.00 | 0.00 | 77 | 1014.3 |
| 20260509011517 | 59 | 127 | 1.0 | 4.0 | 0.00 | 0.00 | 0.00 | 76 | 1014.1 |
| 20260509010517 | 59 | 196 | 1.0 | 3.0 | 0.00 | 0.00 | 0.00 | 74 | 1014.1 |
| 20260509005517 | 59 | 190 | 1.0 | 3.0 | 0.00 | 0.00 | 0.00 | 73 | 1013.9 |
| 20260509004517 | 59 | 148 | 1.0 | 3.0 | 0.00 | 0.00 | 0.00 | 71 | 1013.7 |
| 20260509003518 | 59 | 214 | 1.0 | 2.0 | 0.00 | 0.00 | 0.00 | 72 | 1013.7 |
| 20260509002518 | 59 | 229 | 1.0 | 3.0 | 0.00 | 0.00 | 0.00 | 73 | 1013.7 |
| 20260509001518 | 59 | 279 | 1.0 | 3.0 | 0.00 | 0.00 | 0.00 | 73 | 1013.7 |
| 20260509000518 | 60 | 245 | 1.0 | 3.0 | 0.00 | 0.00 | 0.00 | 73 | 1013.6 |
| 20260508235518 | 61 | 176 | 1.0 | 2.0 | 0.00 | 0.00 | 0.00 | 70 | 1013.6 |
| 20260508234539 | 62 | 16 | 1.0 | 2.0 | 0.00 | 0.00 | 0.00 | 64 | 1013.4 |
| 20260508233536 | 62 | 12 | 1.0 | 2.0 | 0.00 | 0.00 | 0.00 | 65 | 1013.3 |
| 20260508232515 | 62 | 357 | 1.0 | 2.0 | 0.00 | 0.00 | 0.00 | 64 | 1013.2 |
| 20260508231516 | 62 | 346 | 1.0 | 2.0 | 0.00 | 0.00 | 0.00 | 65 | 1013.1 |
| 20260508230536 | 62 | 328 | 1.0 | 2.0 | 0.00 | 0.00 | 0.00 | 65 | 1013.0 |
| 20260508225556 | 62 | 345 | 1.0 | 2.0 | 0.00 | 0.00 | 0.00 | 62 | 1013.0 |
| 20260508224516 | 62 | 307 | 1.0 | 2.0 | 0.00 | 0.00 | 0.00 | 65 | 1013.0 |
| 20260508223516 | 61 | 330 | 0.0 | 2.0 | 0.00 | 0.00 | 0.00 | 64 | 1012.9 |
| 20260508222517 | 60 | 219 | 0.0 | 2.0 | 0.00 | 0.00 | 0.00 | 73 | 1013.0 |
| 20260508221517 | 60 | 205 | 0.0 | 2.0 | 0.00 | 0.00 | 0.00 | 70 | 1012.9 |
| 20260508220517 | 60 | 185 | 1.0 | 3.0 | 0.00 | 0.00 | 0.00 | 72 | 1012.9 |
| 20260508215517 | 59 | 206 | 1.0 | 4.0 | 0.00 | 0.00 | 0.00 | 72 | 1012.9 |
| 20260508214538 | 59 | 196 | 1.0 | 6.0 | 0.00 | 0.00 | 0.00 | 70 | 1012.9 |
| 20260508213517 | 59 | 176 | 1.0 | 4.0 | 0.00 | 0.00 | 0.00 | 68 | 1013.0 |
| 20260508212518 | 59 | 174 | 2.0 | 4.0 | 0.00 | 0.00 | 0.00 | 68 | 1013.1 |
| 20260508211519 | 59 | 176 | 2.0 | 7.0 | 0.00 | 0.01 | 0.00 | 66 | 1013.2 |
| 20260508210519 | 59 | 161 | 2.0 | 4.0 | 0.00 | 0.01 | 0.00 | 65 | 1013.2 |
| 20260508205518 | 60 | 146 | 1.0 | 4.0 | 0.00 | 0.02 | 0.00 | 64 | 1013.4 |
| 20260508204516 | 60 | 165 | 2.0 | 5.0 | 0.00 | 0.03 | 0.00 | 62 | 1013.5 |
| 20260508203516 | 60 | 178 | 1.0 | 4.0 | 0.00 | 0.03 | 0.00 | 61 | 1013.6 |
| 20260508202516 | 60 | 172 | 1.0 | 4.0 | 0.00 | 0.03 | 0.00 | 59 | 1013.6 |
| 20260508201516 | 60 | 234 | 1.0 | 3.0 | 0.00 | 0.03 | 0.00 | 61 | 1013.7 |
| 20260508200516 | 60 | 232 | 1.0 | 5.0 | 0.00 | 0.03 | 0.00 | 62 | 1013.9 |
| 20260508195516 | 61 | 196 | 1.0 | 3.0 | 0.00 | 0.05 | 0.00 | 64 | 1013.9 |
| 20260508194517 | 61 | 216 | 1.0 | 4.0 | 0.00 | 0.07 | 0.00 | 59 | 1014.0 |
| 20260508193517 | 61 | 205 | 1.0 | 4.0 | 0.00 | 0.07 | 0.00 | 58 | 1014.2 |
| 20260508192558 | 61 | 235 | 1.0 | 5.0 | 0.00 | 0.08 | 0.00 | 56 | 1014.3 |
| 20260508191517 | 61 | 210 | 2.0 | 4.0 | 0.00 | 0.08 | 0.00 | 56 | 1014.4 |
| 20260508190517 | 61 | 222 | 1.0 | 4.0 | 0.00 | 0.11 | 0.00 | 57 | 1014.3 |
| 20260508185518 | 62 | 205 | 2.0 | 6.0 | 0.00 | 0.14 | 0.00 | 53 | 1014.5 |
| 20260508184518 | 63 | 181 | 1.0 | 3.0 | 0.00 | 0.16 | 0.00 | 58 | 1014.6 |
| 20260508183518 | 63 | 183 | 1.0 | 7.0 | 0.00 | 0.16 | 0.00 | 56 | 1014.4 |
| 20260508182519 | 63 | 188 | 1.0 | 4.0 | 0.00 | 0.17 | 0.00 | 58 | 1014.4 |
| 20260508181518 | 64 | 218 | 1.0 | 6.0 | 0.00 | 0.17 | 0.00 | 56 | 1014.4 |
| 20260508180518 | 63 | 114 | 1.0 | 4.0 | 0.00 | 0.17 | 0.00 | 56 | 1014.6 |
| 20260508175559 | 63 | 56 | 1.0 | 3.0 | 0.00 | 0.18 | 0.00 | 56 | 1014.8 |
| 20260508174536 | 63 | 47 | 1.0 | 3.0 | 0.00 | 0.18 | 0.00 | 54 | 1014.8 |
| 20260508173516 | 64 | 50 | 1.0 | 3.0 | 0.00 | 0.18 | 0.00 | 54 | 1014.8 |
| 20260508172519 | 64 | 174 | 1.0 | 5.0 | 0.00 | 0.18 | 0.00 | 52 | 1014.9 |
| 20260508171536 | 64 | 349 | 1.0 | 4.0 | 0.00 | 0.18 | 0.00 | 51 | 1015.1 |
| 20260508170516 | 65 | 307 | 1.0 | 3.0 | 0.00 | 0.18 | 0.00 | 46 | 1015.0 |
| 20260508165516 | 66 | 277 | 2.0 | 5.0 | 0.00 | 0.18 | 0.00 | 46 | 1015.2 |
| 20260508164537 | 66 | 32 | 1.0 | 3.0 | 0.00 | 0.18 | 0.00 | 45 | 1015.3 |
| 20260508163516 | 66 | 53 | 1.0 | 4.0 | 0.00 | 0.18 | 0.00 | 46 | 1015.4 |
| 20260508162537 | 67 | 46 | 1.0 | 4.0 | 0.00 | 0.18 | 0.00 | 44 | 1015.5 |
| 20260508161517 | 69 | 25 | 1.0 | 3.0 | 0.00 | 0.18 | 0.00 | 42 | 1015.5 |
| 20260508160537 | 68 | 13 | 1.0 | 3.0 | 0.00 | 0.18 | 0.00 | 44 | 1015.6 |
| 20260508155517 | 69 | 29 | 1.0 | 3.0 | 0.00 | 0.18 | 0.00 | 42 | 1015.7 |
| 20260508154517 | 69 | 20 | 1.0 | 3.0 | 0.00 | 0.18 | 0.00 | 45 | 1015.7 |
| 20260508153517 | 69 | 35 | 2.0 | 4.0 | 0.00 | 0.18 | 0.00 | 43 | 1015.8 |
| 20260508152518 | 69 | 20 | 1.0 | 3.0 | 0.00 | 0.18 | 0.00 | 42 | 1015.8 |
| 20260508151518 | 69 | 26 | 1.0 | 3.0 | 0.00 | 0.18 | 0.00 | 43 | 1016.0 |
| 20260508150519 | 70 | 31 | 1.0 | 4.0 | 0.00 | 0.18 | 0.00 | 42 | 1016.1 |
| 20260508145518 | 70 | 36 | 1.0 | 4.0 | 0.00 | 0.18 | 0.00 | 43 | 1016.1 |
| 20260508144515 | 70 | 28 | 1.0 | 3.0 | 0.00 | 0.18 | 0.00 | 41 | 1016.2 |
| 20260508143516 | 70 | 38 | 1.0 | 4.0 | 0.00 | 0.18 | 0.00 | 43 | 1016.2 |
| 20260508142516 | 69 | 32 | 1.0 | 3.0 | 0.00 | 0.18 | 0.00 | 43 | 1016.2 |
| 20260508141516 | 68 | 46 | 1.0 | 4.0 | 0.00 | 0.18 | 0.00 | 46 | 1016.1 |
| 20260508140516 | 67 | 44 | 1.0 | 4.0 | 0.00 | 0.18 | 0.00 | 46 | 1016.1 |
| 20260508135516 | 66 | 33 | 1.0 | 3.0 | 0.00 | 0.18 | 0.00 | 47 | 1016.0 |
| 20260508134517 | 64 | 358 | 1.0 | 3.0 | 0.00 | 0.18 | 0.00 | 52 | 1015.9 |
| 20260508133516 | 64 | 85 | 1.0 | 3.0 | 0.00 | 0.18 | 0.00 | 51 | 1016.1 |
| 20260508132517 | 64 | 56 | 2.0 | 4.0 | 0.00 | 0.18 | 0.00 | 51 | 1016.0 |
| 20260508131517 | 63 | 41 | 1.0 | 3.0 | 0.00 | 0.18 | 0.00 | 53 | 1016.0 |
| 20260508130517 | 62 | 340 | 0.0 | 3.0 | 0.00 | 0.18 | 0.00 | 53 | 1015.9 |
| 20260508125517 | 61 | 138 | 1.0 | 4.0 | 0.00 | 0.18 | 0.00 | 55 | 1015.9 |
| 20260508124518 | 59 | 113 | 0.0 | 4.0 | 0.00 | 0.18 | 0.00 | 57 | 1015.7 |
| 20260508123600 | 58 | 212 | 0.0 | 1.0 | 0.00 | 0.18 | 0.00 | 62 | 1015.6 |
| 20260508122520 | 57 | 261 | 0.0 | 0.0 | 0.00 | 0.18 | 0.00 | 63 | 1015.7 |
| 20260508121521 | 56 | 182 | 0.0 | 1.0 | 0.00 | 0.18 | 0.00 | 63 | 1015.6 |
| 20260508120521 | 56 | 258 | 0.0 | 1.0 | 0.00 | 0.18 | 0.00 | 65 | 1015.4 |
| 20260508115641 | 55 | 92 | 1.0 | 2.0 | 0.00 | 0.18 | 0.00 | 67 | 1015.3 |
| 20260508114521 | 55 | 54 | 0.0 | 3.0 | 0.00 | 0.18 | 0.00 | 68 | 1015.4 |
| 20260508113542 | 54 | 303 | 0.0 | 1.0 | 0.00 | 0.18 | 0.00 | 68 | 1015.2 |
| 20260508112522 | 54 | 163 | 1.0 | 2.0 | 0.00 | 0.18 | 0.00 | 69 | 1015.0 |
| 20260508111522 | 54 | 209 | 1.0 | 3.0 | 0.00 | 0.18 | 0.00 | 70 | 1014.9 |
| 20260508110522 | 54 | 155 | 0.0 | 1.0 | 0.00 | 0.18 | 0.00 | 69 | 1014.7 |
| 20260508105542 | 53 | 34 | 0.0 | 0.0 | 0.00 | 0.18 | 0.00 | 70 | 1014.5 |
| 20260508104523 | 53 | 138 | 0.0 | 2.0 | 0.00 | 0.18 | 0.00 | 71 | 1014.4 |
| 20260508103523 | 53 | 311 | 1.0 | 3.0 | 0.00 | 0.18 | 0.00 | 72 | 1014.3 |
| 20260508102543 | 53 | 187 | 1.0 | 2.0 | 0.00 | 0.18 | 0.00 | 71 | 1014.2 |
| 20260508101523 | 53 | 258 | 1.0 | 4.0 | 0.00 | 0.18 | 0.00 | 71 | 1014.0 |
| 20260508100524 | 53 | 140 | 0.0 | 2.0 | 0.00 | 0.18 | 0.00 | 73 | 1013.9 |
| 20260508095523 | 54 | 345 | 0.0 | 2.0 | 0.00 | 0.18 | 0.00 | 72 | 1013.7 |